Terminal Aerodrome Forecast
Issued by NWS

Home | Current Version | Previous Version | Text Only | Print | Product List | Glossary On
Versions: 1 2 3 4 5 6 7 8 9 10 11 12 13
000
FTUS45 KRIW 211700
TAFBPI
TAF
KBPI 211720Z 2118/2218 27011KT 5SM -SN SCT020 OVC035
      TEMPO 2118/2120 1 1/2SM -SN BR BKN025 OVC030
     FM220100 32014G22KT 2SM -SHSN OVC015
     FM220700 33012KT P6SM VCSH SCT015 BKN040=

USA.gov is the U.S. government's official web portal to all federal, state and local government web resources and services.